[[{"header":{"parameterUnit":"m.s-1","parameterCategory":1,"la1":30.2992,"la2":30.254,"lo1":-89.0895,"lo2":-89.0443,"dy":0.0025,"dx":0.0025,"nx":19,"ny":19,"refTime":"2026-04-06T21:00:00:Z","depth":0,"parameterNumber":2,"parameterNumberName":"U-component_of_WINDS"},"data":[0,0,0,-4.865,-4.8658,-4.9047,-4.9048,-4.9586,-4.9591,0,0,0,0,0,0,0,0,0,0,0,-4.8553,-4.8557,-4.8649,-4.8659,-4.9046,-4.9048,-4.9585,-4.9591,0,0,0,0,0,0,0,0,0,0,0,-4.8551,-4.8556,-4.8561,-4.8661,-4.9046,-4.9048,-4.9584,-4.9278,0,0,0,0,0,0,0,0,0,0,-4.8895,-4.8822,-4.8555,-4.8561,-4.8663,-4.9046,-4.9048,-4.9263,-4.9297,-4.9426,0,-4.9538,0,-4.9572,-4.9629,-4.9631,0,0,0,-4.8649,-4.8793,-4.888,-4.8562,-4.8667,-4.9045,-4.8869,-4.9282,-4.9321,-4.9472,-4.9545,-4.9564,-4.9581,-4.9633,-4.9635,-5.0395,-5.0399,0,0,-4.8627,-4.8635,-4.8853,-4.8906,-4.884,-4.8856,-4.8881,-4.9305,-4.9389,-4.9547,-4.9576,-4.959,-4.9636,-4.9641,-5.0391,-5.0396,0,0,0,-4.8573,-4.8621,-4.8696,-4.8885,-4.8951,-4.8868,-4.8896,-4.937,-4.9393,-4.9582,-4.9597,-4.964,-4.9647,-5.0387,-5.0393,-5.0601,0,0,0,-4.856,-4.8588,-4.8687,-4.8697,-4.8944,-4.9164,-4.8952,-4.9364,-4.9412,-4.9594,-4.964,-4.9652,-5.0382,-5.039,-5.0586,-5.0702,0,0,0,-4.8522,-4.8584,-4.8645,-4.8696,-4.8861,-4.9157,-4.9204,-4.9374,-4.9422,-4.9631,-4.9654,-5.0379,-5.0389,-5.0572,-5.0679,-5.0906,0,0,0,-4.8487,-4.8828,-4.8648,-4.9036,-4.8858,-4.9278,-4.9201,-4.9515,-4.972,-4.9643,-5.0383,-5.0392,-5.0567,-5.0665,-5.0891,-5.1102,-5.1188,0,0,-4.8922,-4.8881,-4.9108,-4.8958,-4.9411,-4.9218,-4.9705,-4.9889,-4.9905,-5.0233,-5.0251,-5.0591,-5.0677,-5.0903,-5.1661,-5.1729,0,0,0,-4.9249,-4.9413,-4.9531,-4.9721,-4.9864,-4.9999,-5.0104,-5.0172,-5.0448,-5.0072,-5.0731,-5.0782,-5.0915,-5.1016,-5.1074,-5.119,-5.0437,-5.0436,-5.0435,-4.9884,-4.9878,-5.0255,-5.0298,-5.0484,-5.0587,-5.0741,-5.0852,-5.0798,-5.0953,-5.1053,-5.1512,-5.163,-5.1674,-5.1795,-5.1158,-5.1159,-5.116,-5.1161,-5.0526,-5.076,-5.0672,-5.1007,-5.1003,-5.1287,-5.14,-5.1352,-5.1621,-5.1437,-5.1554,-5.1359,-5.1749,-5.1855,-5.1176,-5.1174,-5.1172,-5.117,-5.1169,-5.0947,-5.1058,-5.1128,-5.1402,-5.1615,-5.1647,-5.1907,-5.1894,-5.1885,-5.1999,-5.2106,-5.2103,-5.2103,-5.2049,-5.2051,-5.2052,-5.2054,-5.2055,-5.2056,-5.1358,-5.143,-5.1647,-5.1823,-5.1943,-5.2101,-5.2205,-5.2327,-5.2459,-5.243,-5.2431,-5.2365,-5.1784,-5.1642,-5.2081,-5.2077,-5.2073,-5.2071,-5.2069,-5.2024,-5.1869,-5.2205,-5.2325,-5.2531,-5.2746,-5.2721,-5.2969,-5.3067,-5.3197,-5.3103,-5.2673,-5.2634,-5.2587,-5.2471,-5.3098,-5.3098,-5.3098,-5.3098,-5.2384,-5.2357,-5.2697,-5.289,-5.3077,-5.3088,-5.3475,-5.356,-5.3626,-5.3688,-5.3593,-5.3435,-5.3387,-5.3376,-5.3313,-5.3204,-5.4004,-5.4005,-5.4006,-5.2795,-5.2786,-5.3115,-5.3168,-5.3328,-5.3468,-5.3832,-5.4064,-5.4107,-5.4042,-5.3738,-5.37,-5.3443,-5.3358,-5.3295,-5.3196,-5.2996,0,0]},{"header":{"parameterUnit":"m.s-1","parameterCategory":1,"la1":30.2992,"la2":30.254,"lo1":-89.0895,"lo2":-89.0443,"dy":0.0025,"dx":0.0025,"nx":19,"ny":19,"refTime":"2026-04-06T21:00:00:Z","depth":0,"parameterNumber":3,"parameterNumberName":"V-component_of_WINDS"},"data":[0,0,0,-2.5109,-2.511,-2.5143,-2.5143,-2.5192,-2.5192,0,0,0,0,0,0,0,0,0,0,0,-2.5105,-2.5105,-2.5109,-2.511,-2.5143,-2.5143,-2.5192,-2.5192,0,0,0,0,0,0,0,0,0,0,0,-2.5105,-2.5105,-2.5106,-2.511,-2.5143,-2.5143,-2.5191,-2.5164,0,0,0,0,0,0,0,0,0,0,-2.5131,-2.5133,-2.5105,-2.5106,-2.511,-2.5143,-2.5143,-2.5163,-2.5166,-2.518,0,-2.5196,0,-2.5195,-2.5196,-2.5196,0,0,0,-2.5106,-2.513,-2.5134,-2.5106,-2.5111,-2.5143,-2.5127,-2.5164,-2.5168,-2.5185,-2.5196,-2.5198,-2.5196,-2.5196,-2.5197,-2.5298,-2.5298,0,0,-2.5104,-2.5113,-2.5132,-2.5137,-2.5133,-2.5126,-2.5128,-2.5166,-2.5179,-2.5197,-2.5199,-2.5197,-2.5197,-2.5197,-2.5297,-2.5298,0,0,0,-2.5102,-2.5112,-2.5115,-2.5135,-2.514,-2.5127,-2.5129,-2.5178,-2.5178,-2.5199,-2.5197,-2.5197,-2.5198,-2.5296,-2.5297,-2.5339,0,0,0,-2.51,-2.5111,-2.5115,-2.5121,-2.514,-2.516,-2.514,-2.5175,-2.5179,-2.5197,-2.5197,-2.5198,-2.5295,-2.5297,-2.5337,-2.5357,0,0,0,-2.5101,-2.5111,-2.5118,-2.5121,-2.5136,-2.5159,-2.5161,-2.5176,-2.5178,-2.5196,-2.5199,-2.5295,-2.5296,-2.5334,-2.5353,-2.5386,0,0,0,-2.5104,-2.5155,-2.5119,-2.5175,-2.5136,-2.5186,-2.5161,-2.5197,-2.5218,-2.5197,-2.5295,-2.5297,-2.5333,-2.5351,-2.5383,-2.5414,-2.5428,0,0,-2.5174,-2.5164,-2.5196,-2.5165,-2.5223,-2.518,-2.5244,-2.5254,-2.5246,-2.5281,-2.5283,-2.5338,-2.5353,-2.5385,-2.5506,-2.5518,0,0,0,-2.5222,-2.5245,-2.5258,-2.5279,-2.5288,-2.5297,-2.5296,-2.5299,-2.5328,-2.5266,-2.5359,-2.5367,-2.5386,-2.54,-2.541,-2.5424,-2.5304,-2.5304,-2.5304,-2.5333,-2.5322,-2.5374,-2.5366,-2.5386,-2.5385,-2.54,-2.5404,-2.5386,-2.5408,-2.5417,-2.5492,-2.5509,-2.5517,-2.5532,-2.5434,-2.5434,-2.5434,-2.5434,-2.5433,-2.5464,-2.5439,-2.5481,-2.5468,-2.5502,-2.5502,-2.5488,-2.5518,-2.5484,-2.55,-2.5463,-2.5529,-2.5542,-2.5437,-2.5437,-2.5436,-2.5436,-2.5436,-2.5504,-2.5516,-2.552,-2.5548,-2.5571,-2.5562,-2.5591,-2.5578,-2.5566,-2.5582,-2.559,-2.5589,-2.5585,-2.5587,-2.5587,-2.5587,-2.5588,-2.5588,-2.5588,-2.5575,-2.5578,-2.5605,-2.5619,-2.563,-2.5643,-2.5642,-2.5652,-2.566,-2.5648,-2.5648,-2.5627,-2.5539,-2.5516,-2.5592,-2.5591,-2.5591,-2.559,-2.559,-2.5678,-2.5652,-2.5694,-2.5705,-2.572,-2.5743,-2.5727,-2.5749,-2.5755,-2.577,-2.5746,-2.5683,-2.5672,-2.5664,-2.5645,-2.5749,-2.5749,-2.5749,-2.5749,-2.5736,-2.5729,-2.5768,-2.5787,-2.5804,-2.5793,-2.5838,-2.5838,-2.5833,-2.5837,-2.582,-2.5794,-2.5787,-2.5779,-2.5769,-2.5751,-2.588,-2.588,-2.588,-2.5798,-2.5792,-2.5833,-2.5829,-2.584,-2.5849,-2.5891,-2.5912,-2.5902,-2.5885,-2.5838,-2.5833,-2.5791,-2.5778,-2.5759,-2.5743,-2.5709,0,0]}]]